Weather History for K19A - November, 2013

Change the Weather History Date:

Wednesday, November 27, 2013

  Actual Average (KGVL) Record (KGVL)
Temperature  
Mean Temperature 40 °F 49 °F  
Max Temperature 50 °F 58 °F 77 °F (1973)
Min Temperature 30 °F 40 °F 21 °F (1930)
Degree Days  
Heating Degree Days 25 16  
Month to date heating degree days 327  
Since 1 July heating degree days 485  
Moisture  
Dew Point 26 °F    
Average Humidity 62    
Maximum Humidity 100    
Minimum Humidity 34    
Precipitation  
Precipitation 0.00 in 0.21 in 2.63 in (1993)
Month to date precipitation 3.84  
Year to date precipitation 48.85  
Sea Level Pressure  
Sea Level Pressure 29.87 in    
Wind  
Wind Speed 11 mph (NW)    
Max Wind Speed 26 mph    
Max Gust Speed 36 mph    
Visibility 9 miles    
Events Rain    
T = Trace of Precipitation, MM = Missing Value Source: NWS Daily Summary

Daily Weather History Graph

Daily Weather History Graph

Search for Another Location

Airport or City:

Trip Planner

Search our weather history database for the weather conditions in past years. The results will help you decide how hot, cold, wet, or windy it might be!

Date:

Astronomy

Nov. 27, 2013 Rise Set
Actual Time 7:18 AM EST 5:25 PM EST
Civil Twilight 6:51 AM EST 5:52 PM EST
Nautical Twilight 6:20 AM EST 6:23 PM EST
Astronomical Twilight 5:50 AM EST 6:53 PM EST
Moon 1:34 AM EST (11/27) 1:49 PM EST (11/27)
Length of Visible Light 11h 01m
Length of Day
10h 06m
Waning Crescent, 32% of the Moon is Illuminated
Nov 27
Waning Crescent
Dec 2
New
Dec 9
First Quarter
Dec 17
Full
Dec 25
Last Quarter

Hourly Weather History & Observations

Time (EST) Temp. Windchill Dew Point Humidity Pressure Visibility Wind Dir Wind Speed Gust Speed Precip Events Conditions
12:15 AM 50.0 °F - 48.2 °F 94% 29.62 in 5.0 mi WNW 8.1 mph - N/A Rain Light Rain
12:35 AM 48.2 °F - 48.2 °F 100% 29.61 in 10.0 mi WNW 6.9 mph - N/A   Mostly Cloudy
12:55 AM 48.2 °F - 46.4 °F 93% 29.59 in 10.0 mi WNW 5.8 mph - N/A   Mostly Cloudy
1:15 AM 48.2 °F - 46.4 °F 93% 29.60 in 10.0 mi WNW 6.9 mph - N/A   Mostly Cloudy
1:35 AM 48.2 °F - 46.4 °F 93% 29.61 in 10.0 mi West 6.9 mph - N/A   Overcast
1:55 AM 46.4 °F 43.5 °F 46.4 °F 100% 29.61 in 10.0 mi West 5.8 mph - N/A   Overcast
2:15 AM 46.4 °F 42.4 °F 44.6 °F 93% 29.61 in 10.0 mi WNW 8.1 mph - N/A   Overcast
2:35 AM 46.4 °F 42.4 °F 44.6 °F 93% 29.61 in 10.0 mi WNW 8.1 mph - N/A   Overcast
2:55 AM 46.4 °F 41.5 °F 44.6 °F 93% 29.61 in 7.0 mi WNW 10.4 mph - N/A   Overcast
3:15 AM 46.4 °F 41.9 °F 44.6 °F 93% 29.61 in 4.0 mi WNW 9.2 mph - N/A   Drizzle
3:35 AM 44.6 °F 39.7 °F 44.6 °F 100% 29.61 in 5.0 mi NW 9.2 mph - N/A   Drizzle
3:55 AM 44.6 °F 38.8 °F 42.8 °F 93% 29.61 in 4.0 mi WNW 11.5 mph - N/A Rain Light Rain
4:15 AM 44.6 °F 38.4 °F 42.8 °F 93% 29.61 in 7.0 mi NW 12.7 mph - N/A Rain Rain
4:35 AM 42.8 °F 37.0 °F 41.0 °F 93% 29.61 in 5.0 mi WNW 10.4 mph - N/A Rain Light Rain
4:55 AM 42.8 °F 37.0 °F 41.0 °F 93% 29.62 in 7.0 mi WNW 10.4 mph - N/A   Drizzle
5:15 AM 42.8 °F 37.5 °F 39.2 °F 87% 29.64 in 7.0 mi WNW 9.2 mph - N/A   Light Drizzle
5:35 AM 41.0 °F 34.7 °F 37.4 °F 87% 29.63 in 10.0 mi NW 10.4 mph - N/A   Drizzle
5:55 AM 41.0 °F 33.1 °F 37.4 °F 87% 29.64 in 10.0 mi NW 15.0 mph 19.6 mph N/A Rain Rain
6:15 AM 41.0 °F 34.3 °F 35.6 °F 81% 29.66 in 10.0 mi WNW 11.5 mph 19.6 mph N/A Rain Light Rain
6:35 AM 39.2 °F 30.2 °F 35.6 °F 87% 29.66 in 7.0 mi NW 17.3 mph 24.2 mph N/A Rain Light Rain
6:55 AM 39.2 °F 30.5 °F 35.6 °F 87% 29.67 in 5.0 mi NW 16.1 mph 24.2 mph N/A Rain Light Rain
7:15 AM 39.2 °F 31.2 °F 35.6 °F 87% 29.69 in 10.0 mi NW 13.8 mph 18.4 mph N/A Rain Rain
7:35 AM 37.4 °F 28.9 °F 33.8 °F 87% 29.71 in 7.0 mi WNW 13.8 mph 21.9 mph N/A Rain Light Rain
7:55 AM 37.4 °F 29.3 °F 33.8 °F 87% 29.73 in 7.0 mi NW 12.7 mph - N/A Rain Light Rain
8:15 AM 37.4 °F 29.8 °F 32.0 °F 81% 29.73 in 10.0 mi WNW 11.5 mph - N/A   Overcast
8:35 AM 37.4 °F 28.9 °F 30.2 °F 75% 29.74 in 10.0 mi NW 13.8 mph 21.9 mph N/A   Mostly Cloudy
8:55 AM 37.4 °F 28.9 °F 28.4 °F 70% 29.76 in 10.0 mi NW 13.8 mph 20.7 mph N/A   Scattered Clouds
9:15 AM 39.2 °F 29.8 °F 28.4 °F 65% 29.77 in 10.0 mi NW 18.4 mph 27.6 mph N/A   Clear
9:35 AM 39.2 °F 30.2 °F 26.6 °F 61% 29.78 in 10.0 mi NW 17.3 mph 21.9 mph N/A   Clear
9:55 AM 41.0 °F 31.1 °F 26.6 °F 57% 29.79 in 10.0 mi NW 23.0 mph 28.8 mph N/A   Clear
10:15 AM 41.0 °F 31.9 °F 26.6 °F 57% 29.81 in 10.0 mi NW 19.6 mph 25.3 mph N/A   Clear
10:35 AM 41.0 °F 32.2 °F 23.0 °F 49% 29.81 in 10.0 mi NW 18.4 mph 25.3 mph N/A   Scattered Clouds
10:55 AM 42.8 °F 35.4 °F 23.0 °F 46% 29.82 in 10.0 mi NNW 15.0 mph 29.9 mph N/A   Scattered Clouds
11:15 AM 42.8 °F 33.8 °F 21.2 °F 42% 29.83 in 10.0 mi NW 21.9 mph 28.8 mph N/A   Clear
11:35 AM 42.8 °F 33.3 °F 21.2 °F 42% 29.84 in 10.0 mi NW 24.2 mph 32.2 mph N/A   Clear
11:55 AM 42.8 °F 33.1 °F 21.2 °F 42% 29.85 in 10.0 mi NW 25.3 mph 32.2 mph N/A   Scattered Clouds
12:15 PM 42.8 °F 34.8 °F 19.4 °F 39% 29.85 in 10.0 mi NW 17.3 mph 32.2 mph N/A   Scattered Clouds
12:35 PM 42.8 °F 35.1 °F 17.6 °F 36% 29.86 in 10.0 mi NW 16.1 mph 32.2 mph N/A   Scattered Clouds
12:55 PM 42.8 °F 33.8 °F 19.4 °F 39% 29.87 in 10.0 mi NW 21.9 mph 28.8 mph N/A   Scattered Clouds
1:15 PM 42.8 °F 34.3 °F 19.4 °F 39% 29.88 in 10.0 mi NW 19.6 mph 28.8 mph N/A   Scattered Clouds
1:35 PM 42.8 °F 34.3 °F 17.6 °F 36% 29.90 in 10.0 mi NW 19.6 mph 35.7 mph N/A   Scattered Clouds
1:55 PM 42.8 °F 34.5 °F 15.8 °F 34% 29.91 in 10.0 mi NNW 18.4 mph 31.1 mph N/A   Clear
2:15 PM 41.0 °F 32.2 °F 15.8 °F 36% 29.92 in 10.0 mi NW 18.4 mph 28.8 mph N/A   Scattered Clouds
2:35 PM 41.0 °F 30.5 °F 15.8 °F 36% 29.93 in 10.0 mi WNW 26.5 mph 33.4 mph N/A   Scattered Clouds
2:55 PM 41.0 °F 30.9 °F 15.8 °F 36% 29.95 in 10.0 mi NW 24.2 mph 32.2 mph N/A   Scattered Clouds
3:15 PM 41.0 °F 32.8 °F 15.8 °F 36% 29.96 in 10.0 mi NW 16.1 mph 29.9 mph N/A   Scattered Clouds
3:35 PM 41.0 °F 32.8 °F 15.8 °F 36% 29.98 in 10.0 mi NW 16.1 mph 26.5 mph N/A   Clear
3:55 PM 41.0 °F 31.6 °F 15.8 °F 36% 30.00 in 10.0 mi NW 20.7 mph 27.6 mph N/A   Clear
4:15 PM 37.4 °F 29.3 °F 14.0 °F 38% 30.01 in 10.0 mi NW 12.7 mph 23.0 mph N/A   Scattered Clouds
4:35 PM 37.4 °F 27.8 °F 14.0 °F 38% 30.03 in 10.0 mi NW 17.3 mph 21.9 mph N/A   Scattered Clouds
4:55 PM 37.4 °F 28.5 °F 12.2 °F 36% 30.05 in 10.0 mi NW 15.0 mph 25.3 mph N/A   Mostly Cloudy
5:15 PM 35.6 °F 27.1 °F 14.0 °F 41% 30.06 in 10.0 mi NW 12.7 mph 20.7 mph N/A   Scattered Clouds
5:35 PM 35.6 °F 28.0 °F 12.2 °F 38% 30.07 in 10.0 mi NW 10.4 mph 16.1 mph N/A   Clear
5:55 PM 33.8 °F 24.3 °F 15.8 °F 48% 30.08 in 10.0 mi NW 13.8 mph - N/A   Clear
6:15 PM 33.8 °F 26.4 °F 14.0 °F 44% 30.09 in 10.0 mi NW 9.2 mph 23.0 mph N/A   Clear
6:35 PM 33.8 °F 27.0 °F 14.0 °F 44% 30.10 in 10.0 mi NW 8.1 mph - N/A   Clear
6:55 PM 32.0 °F 25.6 °F 14.0 °F 48% 30.11 in 10.0 mi NW 6.9 mph - N/A   Clear
7:15 PM 32.0 °F 24.8 °F 14.0 °F 48% 30.11 in 10.0 mi NW 8.1 mph - N/A   Clear
7:35 PM 32.0 °F 23.6 °F 14.0 °F 48% 30.12 in 10.0 mi NW 10.4 mph - N/A   Clear
7:55 PM 32.0 °F 28.7 °F 14.0 °F 48% 30.14 in 10.0 mi WNW 3.5 mph - N/A   Clear
8:15 PM 32.0 °F 24.8 °F 14.0 °F 48% 30.14 in 10.0 mi NW 8.1 mph - N/A   Clear
8:35 PM 32.0 °F 23.6 °F 14.0 °F 48% 30.14 in 10.0 mi NW 10.4 mph - N/A   Clear
8:55 PM 32.0 °F 24.8 °F 14.0 °F 48% 30.16 in 10.0 mi WNW 8.1 mph - N/A   Clear
9:15 PM 32.0 °F 26.4 °F 14.0 °F 48% 30.17 in 10.0 mi WNW 5.8 mph - N/A   Clear
9:35 PM 32.0 °F 26.4 °F 12.2 °F 44% 30.18 in 10.0 mi West 5.8 mph - N/A   Clear
9:55 PM 30.2 °F 23.4 °F 14.0 °F 51% 30.18 in 10.0 mi WNW 6.9 mph - N/A   Clear
10:15 PM 30.2 °F 22.6 °F 14.0 °F 51% 30.19 in 10.0 mi WNW 8.1 mph - N/A   Clear
10:35 PM 30.2 °F 25.4 °F 14.0 °F 51% 30.21 in 10.0 mi West 4.6 mph - N/A   Clear
10:55 PM 30.2 °F 22.6 °F 14.0 °F 51% 30.21 in 10.0 mi WNW 8.1 mph - N/A   Clear
11:15 PM 30.2 °F 26.7 °F 14.0 °F 51% 30.22 in 10.0 mi West 3.5 mph - N/A   Clear
11:35 PM 30.2 °F 26.7 °F 14.0 °F 51% 30.23 in 10.0 mi WNW 3.5 mph - N/A   Clear
11:55 PM 30.2 °F 23.4 °F 14.0 °F 51% 30.23 in 10.0 mi WNW 6.9 mph - N/A   Clear